Weather History for Grayling, MI

Change the Weather History Date:

Monday, June 24, 2013

  Actual Average (KHTL) Record (KHTL)
Temperature  
Mean Temperature 77 °F 65 °F  
Max Temperature 86 °F 78 °F 93 °F (1923)
Min Temperature 68 °F 52 °F 34 °F (1932)
Degree Days  
Heating Degree Days 0 3  
Month to date heating degree days 111  
Since 1 June heating degree days 111  
Since 1 July heating degree days 8130  
Cooling Degree Days 12 3  
Month to date cooling degree days 41  
Year to date cooling degree days 57  
Since 1 June cooling degree days 41  
Growing Degree Days 27 (Base 50)    
Moisture  
Dew Point 66 °F    
Average Humidity 71    
Maximum Humidity 95    
Minimum Humidity 51    
Precipitation  
Precipitation 0.00 in 0.10 in 0.82 in (1994)
Month to date precipitation 2.51  
Year to date precipitation 12.37  
Sea Level Pressure  
Sea Level Pressure 29.97 in    
Wind  
Wind Speed 5 mph (SW)    
Max Wind Speed 10 mph    
Max Gust Speed 20 mph    
Visibility 10 miles    
Events      
T = Trace of Precipitation, MM = Missing Value Source: NWS Daily Summary

Daily Weather History Graph

Daily Weather History Graph

Search for Another Location

Airport:

Trip Planner

Search our weather history database for the weather conditions in past years. The results will help you decide how hot, cold, wet, or windy it might be!

Date:

Astronomy

Jun. 24, 2013 Rise Set
Actual Time 5:54 AM EDT 9:28 PM EDT
Civil Twilight 5:17 AM EDT 10:05 PM EDT
Nautical Twilight 4:28 AM EDT 10:54 PM EDT
Astronomical Twilight 3:23 AM EDT 11:58 PM EDT
Moon 10:24 PM EDT (6/24) 7:25 AM EDT (6/24)
Length of Visible Light 16h 48m
Length of Day
15h 34m
Full, 98% of the Moon is Illuminated
Jun 24
Full
Jun 30
Last Quarter
Jul 8
New
Jul 15
First Quarter
Jul 22
Full

Hourly Weather History & Observations

Time (EDT) Temp. Heat Index Dew Point Humidity Pressure Visibility Wind Dir Wind Speed Gust Speed Precip Events Conditions
12:15 AM 75.9 °F - 63.5 °F 65% 29.97 in 10.0 mi SW 5.8 mph - N/A   Clear
12:34 AM 74.8 °F - 63.3 °F 67% 29.98 in 10.0 mi WSW 5.8 mph - N/A   Clear
12:55 AM 73.6 °F - 63.0 °F 69% 29.98 in 10.0 mi SW 6.9 mph - N/A   Clear
1:15 AM 73.6 °F - 64.0 °F 72% 29.98 in 10.0 mi SW 4.6 mph - N/A   Clear
1:34 AM 73.6 °F - 65.3 °F 75% 29.98 in 10.0 mi SW 6.9 mph - N/A   Clear
1:55 AM 73.6 °F - 66.6 °F 79% 29.98 in 10.0 mi Calm Calm - N/A   Clear
2:15 AM 73.6 °F - 68.0 °F 83% 29.99 in 10.0 mi SW 3.5 mph - N/A   Clear
2:34 AM 73.6 °F - 68.5 °F 84% 29.99 in 10.0 mi SSW 4.6 mph - N/A   Clear
2:55 AM 73.6 °F - 68.9 °F 85% 29.99 in 10.0 mi SSW 5.8 mph - N/A   Clear
3:14 AM 73.6 °F - 69.4 °F 87% 29.99 in 10.0 mi SW 4.6 mph - N/A   Clear
3:35 AM 73.6 °F - 69.4 °F 87% 29.99 in 10.0 mi SW 3.5 mph - N/A   Clear
3:55 AM 73.2 °F - 69.4 °F 88% 29.99 in 10.0 mi SW 3.5 mph - N/A   Clear
4:14 AM 72.7 °F - 69.1 °F 88% 29.99 in 10.0 mi SSW 4.6 mph - N/A   Clear
4:35 AM 70.9 °F - 67.8 °F 90% 29.99 in 10.0 mi SW 3.5 mph - N/A   Clear
4:55 AM 69.6 °F - 67.1 °F 92% 29.99 in 10.0 mi WSW 3.5 mph - N/A   Clear
5:14 AM 68.9 °F - 66.7 °F 93% 29.99 in 10.0 mi SW 3.5 mph - N/A   Clear
5:35 AM 68.5 °F - 66.4 °F 93% 29.99 in 10.0 mi Calm Calm - N/A   Clear
5:55 AM 68.5 °F - 66.9 °F 95% 29.99 in 10.0 mi Calm Calm - N/A   Clear
6:14 AM 68.5 °F - 67.1 °F 95% 29.99 in 10.0 mi Calm Calm - N/A   Clear
6:35 AM 68.5 °F - 67.1 °F 95% 29.99 in 10.0 mi Calm Calm - N/A   Clear
6:55 AM 68.9 °F - 67.1 °F 94% 29.99 in 10.0 mi WSW 4.6 mph - N/A   Clear
7:14 AM 70.0 °F - 67.6 °F 92% 29.99 in 10.0 mi WSW 4.6 mph - N/A   Clear
7:35 AM 71.2 °F - 68.0 °F 89% 30.00 in 10.0 mi SW 4.6 mph - N/A   Clear
7:55 AM 73.6 °F - 69.8 °F 88% 30.00 in 10.0 mi SW 4.6 mph - N/A   Clear
8:14 AM 73.6 °F - 68.2 °F 83% 30.00 in 10.0 mi WSW 9.2 mph - N/A   Clear
8:35 AM 74.1 °F - 67.6 °F 80% 29.99 in 10.0 mi SW 9.2 mph - N/A   Clear
8:54 AM 76.1 °F - 68.5 °F 77% 30.00 in 10.0 mi WSW 6.9 mph - N/A   Clear
9:15 AM 76.1 °F - 67.8 °F 75% 30.00 in 10.0 mi SSW 8.1 mph - N/A   Clear
9:35 AM 76.1 °F - 67.5 °F 74% 30.00 in 10.0 mi SW 8.1 mph - N/A   Clear
9:54 AM 78.6 °F - 68.5 °F 71% 30.00 in 10.0 mi SW 4.6 mph - N/A   Clear
10:15 AM 79.0 °F - 67.3 °F 67% 30.00 in 10.0 mi South 6.9 mph - N/A   Scattered Clouds
10:35 AM 81.0 °F 83.6 °F 67.6 °F 64% 30.00 in 10.0 mi SW 9.2 mph - N/A   Scattered Clouds
10:54 AM 80.6 °F 83.2 °F 67.6 °F 65% 30.00 in 10.0 mi SW 5.8 mph - N/A   Scattered Clouds
11:15 AM 81.7 °F 84.3 °F 67.5 °F 62% 30.01 in 10.0 mi SSW 9.2 mph - N/A   Scattered Clouds
11:35 AM 81.9 °F 83.9 °F 65.8 °F 58% 30.00 in 10.0 mi SSW 9.2 mph - N/A   Scattered Clouds
11:54 AM 82.4 °F 84.2 °F 65.3 °F 56% 30.00 in 10.0 mi SSW 6.9 mph - N/A   Scattered Clouds
12:15 PM 86.0 °F 88.2 °F 66.0 °F 51% 30.00 in 10.0 mi SW 8.1 mph - N/A   Scattered Clouds
12:35 PM 85.1 °F 87.1 °F 65.7 °F 52% 30.00 in 10.0 mi SW 8.1 mph - N/A   Mostly Cloudy
12:54 PM 81.1 °F 82.8 °F 64.4 °F 57% 30.00 in 10.0 mi WSW 9.2 mph - N/A   Overcast
1:15 PM 84.2 °F 85.8 °F 64.6 °F 52% 30.00 in 10.0 mi SW 9.2 mph 16.1 mph N/A   Mostly Cloudy
1:35 PM 82.6 °F 84.1 °F 64.2 °F 54% 29.99 in 10.0 mi SW 6.9 mph - N/A   Overcast
1:54 PM 82.4 °F 83.7 °F 63.5 °F 53% 29.99 in 10.0 mi SW 10.4 mph 19.6 mph N/A   Overcast
2:15 PM 82.2 °F 83.8 °F 64.6 °F 55% 29.98 in 10.0 mi SW 6.9 mph - N/A   Overcast
2:34 PM 82.4 °F 84.1 °F 64.8 °F 55% 29.97 in 10.0 mi SW 9.2 mph 16.1 mph N/A   Overcast
2:54 PM 81.1 °F 82.8 °F 64.6 °F 57% 29.96 in 10.0 mi WSW 8.1 mph - N/A   Overcast
3:15 PM 82.0 °F 83.8 °F 64.9 °F 56% 29.96 in 10.0 mi SW 9.2 mph - N/A   Overcast
3:34 PM 82.2 °F 84.0 °F 65.1 °F 56% 29.96 in 10.0 mi SW 8.1 mph 16.1 mph N/A   Mostly Cloudy
3:55 PM 82.6 °F 84.3 °F 65.1 °F 55% 29.96 in 10.0 mi WSW 8.1 mph 17.3 mph N/A   Scattered Clouds
4:14 PM 81.1 °F 83.1 °F 65.7 °F 59% 29.95 in 10.0 mi SW 10.4 mph 17.3 mph N/A   Mostly Cloudy
4:34 PM 81.9 °F 83.5 °F 64.6 °F 56% 29.94 in 10.0 mi WSW 5.8 mph - N/A   Mostly Cloudy
4:55 PM 82.0 °F 83.6 °F 64.6 °F 55% 29.93 in 10.0 mi WSW 6.9 mph - N/A   Mostly Cloudy
5:14 PM 82.8 °F 84.5 °F 65.3 °F 55% 29.93 in 10.0 mi SSW 6.9 mph - N/A   Mostly Cloudy
5:34 PM 81.1 °F 83.1 °F 65.5 °F 59% 29.92 in 10.0 mi SSW 4.6 mph - N/A   Mostly Cloudy
5:55 PM 81.0 °F 83.0 °F 65.8 °F 60% 29.93 in 10.0 mi SW 6.9 mph - N/A   Overcast
6:14 PM 81.1 °F 83.2 °F 66.0 °F 60% 29.93 in 10.0 mi SSW 6.9 mph - N/A   Mostly Cloudy
6:34 PM 81.1 °F 83.2 °F 66.2 °F 60% 29.92 in 10.0 mi SSW 10.4 mph - N/A   Mostly Cloudy
6:54 PM 81.1 °F 83.2 °F 66.0 °F 60% 29.92 in 10.0 mi SW 6.9 mph - N/A   Clear
7:14 PM 79.9 °F - 65.1 °F 61% 29.92 in 10.0 mi SW 8.1 mph - N/A   Scattered Clouds
7:35 PM 79.9 °F - 65.3 °F 61% 29.93 in 10.0 mi SW 10.4 mph 16.1 mph N/A   Mostly Cloudy
7:54 PM 78.8 °F - 65.3 °F 63% 29.93 in 10.0 mi SW 9.2 mph - N/A   Overcast
8:15 PM 78.8 °F - 65.8 °F 64% 29.92 in 10.0 mi SW 5.8 mph - N/A   Overcast
8:35 PM 78.8 °F - 66.2 °F 65% 29.92 in 10.0 mi SW 4.6 mph - N/A   Overcast
8:54 PM 78.8 °F - 65.1 °F 63% 29.92 in 10.0 mi WSW 5.8 mph - N/A   Overcast
9:15 PM 77.2 °F - 63.9 °F 63% 29.91 in 10.0 mi SSW 4.6 mph - N/A   Mostly Cloudy
9:35 PM 76.1 °F - 63.1 °F 64% 29.91 in 10.0 mi SW 3.5 mph - N/A   Scattered Clouds
9:54 PM 74.8 °F - 62.8 °F 66% 29.91 in 10.0 mi Calm Calm - N/A   Clear
10:15 PM 73.6 °F - 62.8 °F 69% 29.91 in 10.0 mi Calm Calm - N/A   Clear
10:35 PM 73.6 °F - 64.0 °F 72% 29.91 in 10.0 mi Calm Calm - N/A   Clear
10:54 PM 72.9 °F - 65.7 °F 78% 29.91 in 10.0 mi Calm Calm - N/A   Clear
11:15 PM 70.5 °F - 64.9 °F 82% 29.92 in 10.0 mi SW 3.5 mph - N/A   Clear
11:35 PM 71.1 °F - 64.6 °F 80% 29.91 in 10.0 mi SSW 3.5 mph - N/A   Clear
11:54 PM 69.8 °F - 63.5 °F 80% 29.91 in 10.0 mi SSW 3.5 mph - N/A   Clear